#timestamp,LO_Frequency,Hit,StdDev 
1576958415.6,286046993.7,N
1576958435.5,286046994.8,N
1576958455.3,286046994.0,N
1576958475.1,286046994.0,N
1576958495.9,286046991.7,Y
1576958515.7,286046996.4,P
1576958535.6,286046997.7,P
1576958555.4,286046995.3,P
1576958575.2,286046993.7,Y
1576958595.1,286046999.2,P
1576958596.0,286046999.2,N
1576958615.8,286046996.7,N
1576958635.7,286046999.1,N
1576958655.5,286046996.8,N
1576958675.3,286046997.2,N
1576958695.2,286046995.2,Y
1576958715.0,286046999.6,P
1576958715.9,286046999.6,N
1576958735.8,286046998.2,N
1576958755.6,286047000.4,N
1576958775.4,286046998.9,N
1576958795.3,286047002.2,N
1576958815.1,286046999.8,N
1576958835.8,286047000.9,N
1576958855.7,286046998.1,N
1576958875.5,286046999.2,N
1576958895.4,286046998.8,N
1576958915.2,286046999.8,N
1576958935.0,286046999.7,N
1576958935.9,286046999.7,N
1576958955.8,286047000.0,N
1576958975.6,286046998.8,N
1576958995.4,286046997.1,N
1576959015.3,286046997.7,N
1576959035.1,286046999.0,N
1576959055.9,286046998.9,N
1576959075.7,286046995.1,Y
1576959095.5,286046998.4,P
1576959115.4,286047000.2,N
1576959135.2,286047000.5,N
1576959155.1,286047002.5,N
1576959156.0,286047002.5,N
1576959175.8,286047000.2,N
1576959195.6,286047000.7,N
1576959215.5,286047001.3,N
1576959235.3,286047002.0,N
1576959255.1,286047000.0,N
1576959275.9,286047002.5,N
1576959295.7,286047001.3,N
1576959315.6,286047004.4,Y
1576959335.4,286047002.8,P
1576959355.2,286047003.9,P
1576959375.1,286047004.2,P
1576959376.0,286047004.2,Y
1576959395.8,286047001.9,P
1576959415.7,286047005.9,P
1576959435.5,286046999.7,N
1576959455.3,286047001.0,N
1576959475.2,286047000.4,N
1576959495.0,286047000.3,N
1576959495.9,286047000.3,N
1576959515.8,286047002.6,N
1576959535.6,286047000.7,N
1576959555.4,286047000.9,N
1576959575.3,286046998.1,N
1576959595.1,286047000.7,N
1576959615.8,286047000.2,N
1576959635.7,286046998.6,N
1576959655.5,286047000.8,N
1576959675.4,286046999.9,N
1576959695.2,286046998.1,N
1576959715.0,286047001.5,N
1576959715.9,286047001.5,N
1576959735.8,286047001.5,N
1576959755.6,286047002.0,N
1576959775.4,286046999.9,N
1576959795.3,286047004.2,N
1576959815.1,286047001.6,N
1576959835.9,286047002.7,N
1576959855.7,286047002.2,N
1576959875.5,286047001.2,N
1576959895.4,286047002.0,N
1576959915.2,286047002.3,N
1576959935.0,286047004.0,N
1576959966.0,286047000.6,E
1576959975.9,286047002.3,N
1576959995.7,286047000.1,P
1576960015.6,286047004.0,P
1576960035.4,286047000.7,N
1576960055.3,286047000.5,N
1576960075.1,286047000.2,N
1576960076.0,286047000.2,N
1576960095.8,286047002.4,N
1576960115.7,286047003.3,N
1576960135.5,286047006.8,Y
1576960155.3,286047005.1,P
1576960175.2,286047007.1,P
1576960195.0,286047008.2,P
1576960195.9,286047008.2,Y
1576960215.8,286047004.4,P
1576960235.6,286047001.4,N
1576960255.4,286047003.9,N
1576960275.3,286047000.3,N
1576960295.1,286046998.7,N
1576960315.9,286046998.6,N
1576960335.7,286046996.9,N
1576960355.5,286046996.8,N
1576960375.4,286046995.6,N
1576960395.2,286046997.2,N
1576960415.0,286046995.6,N
1576960415.9,286046995.6,N
1576960435.8,286046993.4,N
1576960455.6,286046998.0,N
1576960475.5,286046993.4,N
1576960495.3,286046995.0,N
1576960515.1,286046999.6,N
1576960535.9,286046999.2,N
1576960555.7,286046996.6,N
1576960575.5,286046996.5,N
1576960595.4,286046995.3,N
1576960615.2,286046994.6,N
1576960635.1,286046992.2,N
1576960636.0,286046992.2,N
1576960655.8,286046992.0,N
1576960675.6,286046991.7,N
1576960695.5,286046994.1,N
1576960715.3,286046994.7,N
1576960735.1,286046993.6,N
1576960755.9,286046993.9,N
1576960775.7,286046992.7,N
1576960795.6,286046991.9,N
1576960815.4,286046993.5,N
1576960835.2,286046995.8,N
1576960855.1,286046997.7,N
1576960856.0,286046997.7,N
1576960875.8,286046999.6,N
1576960895.7,286047000.4,N
1576960915.5,286047000.6,N
1576960935.3,286046998.3,N
1576960955.2,286046999.4,N
1576960975.0,286046996.7,N
1576960975.9,286046996.7,N
1576960995.7,286046997.1,N
1576961015.6,286047000.7,N
1576961035.4,286047000.8,N
1576961055.3,286046998.3,N
1576961075.1,286046999.1,N
1576961076.0,286046999.1,N
1576961095.8,286046998.4,N
1576961115.7,286047000.7,N
1576961135.5,286046997.6,N
1576961155.4,286046997.7,N
1576961175.2,286047000.3,N
1576961195.0,286047000.8,N
1576961195.9,286047000.8,N
1576961215.8,286047000.2,N
1576961235.6,286047000.2,N
1576961255.4,286046997.0,N
1576961275.3,286046995.9,N
1576961295.1,286046993.9,N
1576961315.9,286046996.2,N
1576961335.7,286046993.9,Y
1576961355.5,286046995.1,P
1576961375.4,286046995.8,N
1576961395.2,286046996.4,N
1576961415.1,286046995.9,Y
1576961416.0,286047011.9,P
1576961435.8,286046999.0,N
1576961455.6,286046999.4,N
1576961475.5,286047000.7,N
1576961495.3,286047002.2,N
1576961515.1,286047002.2,N
1576961535.9,286047003.2,N
1576961555.7,286047002.4,N
1576961575.6,286047001.8,N
1576961595.4,286047004.2,N
1576961615.2,286047001.8,N
1576961635.1,286047003.8,N
1576961636.0,286047003.8,N
1576961655.8,286047004.0,N
1576961675.7,286047001.7,N
1576961695.5,286047001.9,N
1576961715.3,286047004.4,N
1576961735.2,286047005.3,N
1576961755.9,286047005.3,N
1576961775.7,286047001.9,N
1576961795.6,286046999.7,N
1576961815.4,286047001.5,N
1576961835.3,286047001.5,N
1576961855.1,286047000.5,N
1576961856.0,286047000.5,N
1576961875.8,286047002.4,N
1576961895.7,286046999.9,N
1576961915.5,286047002.8,N
1576961935.3,286046999.8,N
1576961955.2,286047000.9,N
1576961975.0,286047001.6,N
1576961975.9,286047001.6,N
1576961995.8,286047001.9,N
